Time,TemperatureF,DewpointF,PressureIn,WindDirection,WindDirectionDegrees,WindSpeedMPH,WindSpeedGustMPH,Humidity,HourlyPrecipIn,Conditions,Clouds,dailyrainin,SoftwareType,DateUTC
2013-05-21 00:01:00,62.2,62.2,29.80,ESE,122,4.9,6.3,100,0.08,,,0.00,VWS V13.01,2013-05-21 05:01:00,
2013-05-21 00:06:00,62.2,62.2,29.80,ENE,76,2.7,3.1,100,0.08,,,0.00,VWS V13.01,2013-05-21 05:06:00,
2013-05-21 00:11:00,62.2,62.2,29.80,SSE,147,3.6,3.6,100,0.08,,,0.00,VWS V13.01,2013-05-21 05:11:00,
2013-05-21 00:16:00,62.0,62.0,29.80,South,175,0.0,0.0,100,0.08,,,0.00,VWS V13.01,2013-05-21 05:16:00,
2013-05-21 00:21:00,62.0,62.0,29.80,South,176,0.0,0.0,100,0.08,,,0.00,VWS V13.01,2013-05-21 05:21:00,
2013-05-21 00:26:00,62.0,62.0,29.80,South,176,0.0,0.0,100,0.04,,,0.00,VWS V13.01,2013-05-21 05:26:00,
2013-05-21 00:31:00,61.9,61.9,29.80,South,176,0.0,0.0,100,0.04,,,0.00,VWS V13.01,2013-05-21 05:31:00,
2013-05-21 00:36:00,61.9,61.9,29.80,ESE,106,0.0,0.0,100,0.04,,,0.00,VWS V13.01,2013-05-21 05:36:00,
2013-05-21 00:41:00,61.9,61.9,29.80,ESE,106,0.0,0.0,100,0.04,,,0.00,VWS V13.01,2013-05-21 05:41:00,
2013-05-21 00:46:00,61.9,61.9,29.80,NE,47,3.1,3.1,100,0.04,,,0.00,VWS V13.01,2013-05-21 05:46:00,
2013-05-21 00:51:00,61.7,61.7,29.80,NE,36,0.0,0.0,100,0.00,,,0.00,VWS V13.01,2013-05-21 05:51:00,
2013-05-21 00:56:00,61.9,61.9,29.80,North,5,4.0,4.0,100,0.00,,,0.00,VWS V13.01,2013-05-21 05:56:00,
2013-05-21 01:01:00,61.9,61.9,29.78,SSW,199,0.0,0.0,100,0.00,,,0.00,VWS V13.01,2013-05-21 06:01:00,
2013-05-21 01:06:00,61.9,61.9,29.78,South,170,3.6,4.0,100,0.00,,,0.00,VWS V13.01,2013-05-21 06:06:00,
2013-05-21 01:11:00,61.9,61.9,29.78,WSW,238,0.0,0.0,100,0.00,,,0.00,VWS V13.01,2013-05-21 06:11:00,
2013-05-21 01:16:00,61.9,61.9,29.83,SW,231,4.0,4.5,100,0.00,,,0.00,VWS V13.01,2013-05-21 06:16:00,
2013-05-21 01:21:00,61.9,61.9,29.83,SW,222,5.4,5.8,100,0.00,,,0.00,VWS V13.01,2013-05-21 06:21:00,
2013-05-21 01:26:00,61.9,61.9,29.83,SSE,155,3.6,3.6,100,0.00,,,0.00,VWS V13.01,2013-05-21 06:26:00,
2013-05-21 01:31:00,61.9,61.9,29.83,ENE,69,2.2,2.2,100,0.00,,,0.00,VWS V13.01,2013-05-21 06:31:00,
2013-05-21 01:36:00,61.9,61.9,29.83,WSW,242,4.0,4.0,100,0.00,,,0.00,VWS V13.01,2013-05-21 06:36:00,
2013-05-21 01:41:00,61.9,61.9,29.83,South,186,0.0,0.0,100,0.00,,,0.00,VWS V13.01,2013-05-21 06:41:00,
2013-05-21 01:46:00,61.9,61.9,29.83,SE,143,2.7,2.7,100,0.00,,,0.00,VWS V13.01,2013-05-21 06:46:00,
2013-05-21 01:51:00,61.9,61.9,29.83,SE,143,3.6,3.6,100,0.00,,,0.00,VWS V13.01,2013-05-21 06:51:00,
2013-05-21 01:56:00,61.9,61.9,29.83,SE,125,2.2,4.0,100,0.00,,,0.00,VWS V13.01,2013-05-21 06:56:00,
2013-05-21 02:01:00,61.9,61.9,29.83,South,169,3.1,3.6,100,0.00,,,0.00,VWS V13.01,2013-05-21 07:01:00,
2013-05-21 02:06:00,62.0,62.0,29.83,NW,321,0.0,0.0,100,0.00,,,0.00,VWS V13.01,2013-05-21 07:06:00,
2013-05-21 02:11:00,62.2,62.2,29.83,NE,36,2.7,5.4,100,0.00,,,0.00,VWS V13.01,2013-05-21 07:11:00,
2013-05-21 02:16:00,62.0,62.0,29.75,NE,35,5.4,8.3,100,0.04,,,0.04,VWS V13.01,2013-05-21 07:16:00,
2013-05-21 02:21:00,62.0,62.0,29.75,North,7,5.8,5.8,100,0.04,,,0.04,VWS V13.01,2013-05-21 07:21:00,
2013-05-21 02:26:00,61.9,61.9,29.75,NNW,348,5.8,6.7,100,0.04,,,0.04,VWS V13.01,2013-05-21 07:26:00,
2013-05-21 02:31:00,61.7,61.7,29.69,NNE,13,8.7,14.1,100,0.04,,,0.04,VWS V13.01,2013-05-21 07:31:00,
2013-05-21 02:36:00,61.9,61.9,29.69,ESE,121,10.1,11.0,100,0.04,,,0.04,VWS V13.01,2013-05-21 07:36:00,
2013-05-21 02:41:00,62.0,62.0,29.69,South,170,11.0,11.0,100,0.04,,,0.04,VWS V13.01,2013-05-21 07:41:00,
2013-05-21 02:45:00,62.6,62.6,29.80,South,178,0.0,2.2,100,0.04,,,0.04,VWS V13.01,2013-05-21 07:45:00,
2013-05-21 02:50:00,62.8,62.8,29.80,SW,220,4.9,5.8,100,0.04,,,0.04,VWS V13.01,2013-05-21 07:50:00,
2013-05-21 02:55:00,62.9,62.9,29.80,ESE,107,0.0,3.6,100,0.04,,,0.04,VWS V13.01,2013-05-21 07:55:00,
2013-05-21 03:00:00,62.8,62.8,29.80,NE,53,0.0,0.0,100,0.04,,,0.04,VWS V13.01,2013-05-21 08:00:00,
2013-05-21 03:05:00,62.6,62.6,29.80,NW,321,3.1,3.1,100,0.04,,,0.04,VWS V13.01,2013-05-21 08:05:00,
2013-05-21 03:10:00,62.4,62.4,29.80,NNE,31,0.0,2.7,100,0.04,,,0.04,VWS V13.01,2013-05-21 08:10:00,
2013-05-21 03:15:00,62.4,62.4,29.78,WNW,287,4.0,4.0,100,0.00,,,0.04,VWS V13.01,2013-05-21 08:15:00,
2013-05-21 03:20:00,62.4,62.4,29.78,NW,307,3.6,3.6,100,0.00,,,0.04,VWS V13.01,2013-05-21 08:20:00,
2013-05-21 03:25:00,62.4,62.4,29.78,NE,35,0.0,0.0,100,0.00,,,0.04,VWS V13.01,2013-05-21 08:25:00,
2013-05-21 03:30:00,62.2,62.2,29.80,NE,40,0.0,0.0,100,0.00,,,0.04,VWS V13.01,2013-05-21 08:30:00,
2013-05-21 03:35:00,62.4,62.4,29.80,WNW,291,0.0,3.6,100,0.00,,,0.04,VWS V13.01,2013-05-21 08:35:00,
2013-05-21 03:40:00,62.2,62.2,29.80,North,11,0.0,0.0,100,0.00,,,0.04,VWS V13.01,2013-05-21 08:40:00,
2013-05-21 03:45:00,62.2,62.2,29.80,North,5,0.0,0.0,100,0.00,,,0.04,VWS V13.01,2013-05-21 08:45:00,
2013-05-21 03:50:00,62.2,62.2,29.80,NE,36,3.1,3.1,100,0.00,,,0.04,VWS V13.01,2013-05-21 08:50:00,
2013-05-21 03:55:00,62.2,62.2,29.80,WSW,243,4.9,4.9,100,0.00,,,0.04,VWS V13.01,2013-05-21 08:55:00,
2013-05-21 04:00:00,62.4,62.4,29.83,SW,222,3.1,5.8,100,0.00,,,0.04,VWS V13.01,2013-05-21 09:00:00,
2013-05-21 04:05:00,62.4,62.4,29.83,SW,225,14.1,20.6,100,0.04,,,0.08,VWS V13.01,2013-05-21 09:05:00,
2013-05-21 04:10:00,61.5,61.5,29.83,SW,232,6.3,6.3,100,0.20,,,0.28,VWS V13.01,2013-05-21 09:10:00,
2013-05-21 04:15:00,60.8,60.8,29.89,SSW,211,8.1,9.2,100,0.35,,,0.39,VWS V13.01,2013-05-21 09:15:00,
2013-05-21 04:20:00,60.6,60.6,29.89,WSW,240,10.5,12.8,100,0.39,,,0.43,VWS V13.01,2013-05-21 09:20:00,
2013-05-21 04:25:00,60.8,60.8,29.89,WSW,237,8.3,15.0,100,0.43,,,0.47,VWS V13.01,2013-05-21 09:25:00,
2013-05-21 04:30:00,60.8,60.8,29.89,WSW,249,5.8,5.8,100,0.43,,,0.47,VWS V13.01,2013-05-21 09:30:00,
2013-05-21 04:35:00,61.0,61.0,29.89,SW,229,8.7,8.7,100,0.43,,,0.47,VWS V13.01,2013-05-21 09:35:00,
2013-05-21 04:40:00,61.0,61.0,29.89,NW,310,3.6,4.0,100,0.43,,,0.47,VWS V13.01,2013-05-21 09:40:00,
2013-05-21 04:45:00,61.0,61.0,29.80,NNW,334,3.6,4.0,100,0.43,,,0.47,VWS V13.01,2013-05-21 09:45:00,
2013-05-21 04:50:00,61.0,61.0,29.80,North,2,0.0,0.0,100,0.43,,,0.47,VWS V13.01,2013-05-21 09:50:00,
2013-05-21 04:55:00,61.1,61.1,29.80,SSE,164,5.4,5.4,100,0.43,,,0.47,VWS V13.01,2013-05-21 09:55:00,
2013-05-21 05:00:00,61.0,61.0,29.80,East,92,4.0,4.0,100,0.47,,,0.51,VWS V13.01,2013-05-21 10:00:00,
2013-05-21 05:05:00,60.8,60.8,29.80,East,95,0.0,0.0,100,0.47,,,0.51,VWS V13.01,2013-05-21 10:05:00,
2013-05-21 05:10:00,60.8,60.8,29.80,SSE,152,0.0,2.7,100,0.28,,,0.51,VWS V13.01,2013-05-21 10:10:00,
2013-05-21 05:15:00,60.8,60.8,29.78,SE,126,2.2,2.2,100,0.12,,,0.51,VWS V13.01,2013-05-21 10:15:00,
2013-05-21 05:20:00,60.6,60.6,29.78,SE,143,0.0,0.0,100,0.08,,,0.51,VWS V13.01,2013-05-21 10:20:00,
2013-05-21 05:25:00,60.6,60.6,29.78,SE,125,3.1,3.1,100,0.04,,,0.51,VWS V13.01,2013-05-21 10:25:00,
2013-05-21 05:30:00,60.6,60.6,29.78,NE,51,2.2,2.7,100,0.04,,,0.51,VWS V13.01,2013-05-21 10:30:00,
2013-05-21 05:35:00,60.4,60.4,29.78,SE,129,2.7,2.7,100,0.04,,,0.51,VWS V13.01,2013-05-21 10:35:00,
2013-05-21 05:40:00,60.4,60.4,29.78,ENE,66,5.8,5.8,100,0.04,,,0.51,VWS V13.01,2013-05-21 10:40:00,
2013-05-21 05:45:00,60.4,60.4,29.78,East,91,3.1,4.0,100,0.04,,,0.51,VWS V13.01,2013-05-21 10:45:00,
2013-05-21 05:50:00,60.4,60.4,29.78,SSW,210,0.0,0.0,100,0.04,,,0.51,VWS V13.01,2013-05-21 10:50:00,
2013-05-21 05:55:00,60.4,60.4,29.78,East,99,0.0,3.6,100,0.04,,,0.51,VWS V13.01,2013-05-21 10:55:00,
2013-05-21 06:00:00,60.2,60.2,29.78,ENE,71,2.7,2.7,100,0.00,,,0.51,VWS V13.01,2013-05-21 11:00:00,
2013-05-21 06:05:00,60.2,60.2,29.78,ESE,114,4.9,5.4,100,0.00,,,0.51,VWS V13.01,2013-05-21 11:05:00,
2013-05-21 06:10:00,60.2,60.2,29.78,ENE,64,5.8,5.8,100,0.00,,,0.51,VWS V13.01,2013-05-21 11:10:00,
2013-05-21 06:15:00,60.4,60.4,29.78,East,100,4.0,4.0,100,0.00,,,0.51,VWS V13.01,2013-05-21 11:15:00,
2013-05-21 06:20:00,60.4,60.4,29.78,ENE,78,3.6,3.6,100,0.00,,,0.51,VWS V13.01,2013-05-21 11:20:00,
2013-05-21 06:25:00,60.2,60.2,29.78,NNE,29,0.0,0.0,100,0.00,,,0.51,VWS V13.01,2013-05-21 11:25:00,
2013-05-21 06:30:00,60.4,60.4,29.80,NNE,33,3.1,3.1,100,0.00,,,0.51,VWS V13.01,2013-05-21 11:30:00,
2013-05-21 06:35:00,60.4,60.4,29.80,NNW,335,0.0,0.0,100,0.00,,,0.51,VWS V13.01,2013-05-21 11:35:00,
2013-05-21 06:40:00,60.4,60.4,29.80,North,355,0.0,2.7,100,0.00,,,0.51,VWS V13.01,2013-05-21 11:40:00,
2013-05-21 06:45:00,60.2,60.2,29.80,ENE,68,2.7,2.7,100,0.00,,,0.51,VWS V13.01,2013-05-21 11:45:00,
2013-05-21 06:50:00,60.2,60.2,29.80,North,356,3.6,3.6,100,0.00,,,0.51,VWS V13.01,2013-05-21 11:50:00,
2013-05-21 06:55:00,60.2,60.2,29.80,NNE,25,0.0,0.0,100,0.00,,,0.51,VWS V13.01,2013-05-21 11:55:00,
2013-05-21 07:00:00,60.2,60.2,29.83,NNE,29,2.7,2.7,100,0.00,,,0.51,VWS V13.01,2013-05-21 12:00:00,
2013-05-21 07:05:00,60.2,60.2,29.83,North,10,4.0,4.0,100,0.00,,,0.51,VWS V13.01,2013-05-21 12:05:00,
2013-05-21 07:10:00,60.2,60.2,29.83,NNE,18,3.6,4.0,100,0.00,,,0.51,VWS V13.01,2013-05-21 12:10:00,
2013-05-21 07:15:00,60.4,60.4,29.83,WNW,285,5.4,5.4,100,0.00,,,0.51,VWS V13.01,2013-05-21 12:15:00,
2013-05-21 07:20:00,60.6,60.6,29.83,WNW,294,3.1,3.6,100,0.00,,,0.51,VWS V13.01,2013-05-21 12:20:00,
2013-05-21 07:25:00,60.4,60.4,29.83,West,277,4.0,4.9,100,0.00,,,0.51,VWS V13.01,2013-05-21 12:25:00,
2013-05-21 07:30:00,60.4,60.4,29.86,NNE,17,0.0,2.7,100,0.00,,,0.51,VWS V13.01,2013-05-21 12:30:00,
2013-05-21 07:35:00,60.6,60.6,29.86,NNW,333,0.0,0.0,100,0.00,,,0.51,VWS V13.01,2013-05-21 12:35:00,
2013-05-21 07:40:00,60.6,60.6,29.86,WNW,290,5.8,5.8,100,0.12,,,0.63,VWS V13.01,2013-05-21 12:40:00,
2013-05-21 07:45:00,60.6,60.6,29.86,WSW,247,0.0,0.0,100,0.24,,,0.75,VWS V13.01,2013-05-21 12:45:00,
2013-05-21 07:50:00,60.4,60.4,29.86,WSW,242,0.0,0.0,100,0.28,,,0.79,VWS V13.01,2013-05-21 12:50:00,
2013-05-21 07:55:00,60.4,60.4,29.86,ESE,106,0.0,2.2,100,0.31,,,0.83,VWS V13.01,2013-05-21 12:55:00,
2013-05-21 08:00:00,60.6,60.6,29.86,NE,44,3.1,3.1,100,0.39,,,0.91,VWS V13.01,2013-05-21 13:00:00,
2013-05-21 08:05:00,60.4,60.4,29.86,ESE,106,0.0,2.2,100,0.43,,,0.94,VWS V13.01,2013-05-21 13:05:00,
2013-05-21 08:10:00,60.4,60.4,29.86,NE,37,2.2,2.7,100,0.43,,,0.94,VWS V13.01,2013-05-21 13:10:00,
2013-05-21 08:15:00,60.2,60.2,29.86,NE,39,0.0,0.0,100,0.43,,,0.94,VWS V13.01,2013-05-21 13:15:00,
2013-05-21 08:20:00,60.2,60.2,29.86,WSW,251,2.2,2.2,100,0.43,,,0.94,VWS V13.01,2013-05-21 13:20:00,
2013-05-21 08:25:00,60.4,60.4,29.86,WSW,249,0.0,0.0,100,0.43,,,0.94,VWS V13.01,2013-05-21 13:25:00,
2013-05-21 08:30:00,60.4,60.4,29.86,NE,36,2.2,2.7,100,0.47,,,0.98,VWS V13.01,2013-05-21 13:30:00,
2013-05-21 08:35:00,60.4,60.4,29.86,ESE,123,2.7,2.7,100,0.47,,,0.98,VWS V13.01,2013-05-21 13:35:00,
2013-05-21 08:40:00,60.4,60.4,29.86,NNE,21,3.6,3.6,100,0.43,,,1.02,VWS V13.01,2013-05-21 13:40:00,
2013-05-21 08:45:00,60.4,60.4,29.86,NE,46,2.7,4.9,100,0.39,,,1.10,VWS V13.01,2013-05-21 13:45:00,
2013-05-21 08:50:00,60.2,60.2,29.86,NE,53,0.0,0.0,100,0.31,,,1.10,VWS V13.01,2013-05-21 13:50:00,
2013-05-21 08:55:00,60.2,60.2,29.86,NNW,334,0.0,0.0,100,0.28,,,1.10,VWS V13.01,2013-05-21 13:55:00,
2013-05-21 09:00:00,60.4,60.4,29.86,NNE,31,2.2,2.2,100,0.20,,,1.10,VWS V13.01,2013-05-21 14:00:00,
2013-05-21 09:05:00,60.8,60.8,29.86,NW,325,0.0,0.0,100,0.16,,,1.10,VWS V13.01,2013-05-21 14:05:00,
2013-05-21 09:10:00,60.8,60.8,29.86,NW,326,0.0,0.0,100,0.16,,,1.10,VWS V13.01,2013-05-21 14:10:00,
2013-05-21 09:15:00,61.0,61.0,29.86,NNE,22,2.7,2.7,100,0.16,,,1.10,VWS V13.01,2013-05-21 14:15:00,
2013-05-21 09:20:00,61.0,61.0,29.86,North,4,0.0,2.7,100,0.16,,,1.10,VWS V13.01,2013-05-21 14:20:00,
2013-05-21 09:25:00,61.3,61.3,29.86,NE,39,0.0,2.7,100,0.16,,,1.10,VWS V13.01,2013-05-21 14:25:00,
2013-05-21 09:30:00,61.5,61.5,29.86,NE,47,3.1,5.4,100,0.12,,,1.10,VWS V13.01,2013-05-21 14:30:00,
2013-05-21 09:35:00,61.5,61.5,29.86,East,81,2.7,3.1,100,0.12,,,1.10,VWS V13.01,2013-05-21 14:35:00,
2013-05-21 09:40:00,61.5,61.5,29.86,NE,34,0.0,3.1,100,0.08,,,1.10,VWS V13.01,2013-05-21 14:40:00,
2013-05-21 09:45:00,61.7,61.7,29.83,NW,319,0.0,0.0,100,0.00,,,1.10,VWS V13.01,2013-05-21 14:45:00,
2013-05-21 09:50:00,61.7,61.7,29.83,NE,42,0.0,0.0,100,0.04,,,1.14,VWS V13.01,2013-05-21 14:50:00,
2013-05-21 09:55:00,61.7,61.7,29.83,SSE,157,0.0,0.0,100,0.04,,,1.14,VWS V13.01,2013-05-21 14:55:00,
2013-05-21 10:00:00,61.5,61.5,29.83,NNE,22,3.1,3.1,100,0.04,,,1.14,VWS V13.01,2013-05-21 15:00:00,
2013-05-21 10:05:00,61.7,61.7,29.83,South,185,0.0,0.0,100,0.08,,,1.18,VWS V13.01,2013-05-21 15:05:00,
2013-05-21 10:10:00,61.7,61.7,29.83,ESE,119,0.0,0.0,100,0.08,,,1.18,VWS V13.01,2013-05-21 15:10:00,
2013-05-21 10:15:00,61.7,61.7,29.86,ENE,69,2.7,3.6,100,0.08,,,1.18,VWS V13.01,2013-05-21 15:15:00,
2013-05-21 10:20:00,61.7,61.7,29.86,SSE,166,2.2,2.7,100,0.08,,,1.18,VWS V13.01,2013-05-21 15:20:00,
2013-05-21 10:24:00,61.9,61.9,29.86,West,268,2.7,3.6,100,0.08,,,1.18,VWS V13.01,2013-05-21 15:24:00,
2013-05-21 10:29:00,61.9,61.9,29.86,WNW,289,0.0,0.0,100,0.08,,,1.18,VWS V13.01,2013-05-21 15:29:00,
2013-05-21 10:34:00,61.9,61.9,29.86,SSW,193,2.7,2.7,100,0.08,,,1.18,VWS V13.01,2013-05-21 15:34:00,
2013-05-21 10:39:00,61.9,61.9,29.86,SW,235,5.4,5.4,100,0.08,,,1.18,VWS V13.01,2013-05-21 15:39:00,
2013-05-21 10:44:00,61.7,61.7,29.89,SW,226,6.3,6.3,100,0.08,,,1.18,VWS V13.01,2013-05-21 15:44:00,
2013-05-21 10:49:00,61.9,61.9,29.89,SSE,147,4.9,4.9,100,0.08,,,1.18,VWS V13.01,2013-05-21 15:49:00,
2013-05-21 10:54:00,61.7,61.7,29.89,SSE,161,2.7,3.6,100,0.04,,,1.18,VWS V13.01,2013-05-21 15:54:00,
2013-05-21 10:59:00,61.7,61.7,29.92,SE,129,2.2,4.0,100,0.04,,,1.18,VWS V13.01,2013-05-21 15:59:00,
2013-05-21 11:04:00,61.7,61.7,29.92,West,268,3.6,3.6,100,0.00,,,1.18,VWS V13.01,2013-05-21 16:04:00,
2013-05-21 11:09:00,61.7,61.7,29.92,WSW,250,3.1,5.4,100,0.04,,,1.22,VWS V13.01,2013-05-21 16:09:00,
2013-05-21 11:14:00,61.7,61.7,29.92,West,264,0.0,3.1,100,0.04,,,1.22,VWS V13.01,2013-05-21 16:14:00,
2013-05-21 11:19:00,61.5,61.5,29.92,West,265,2.2,2.2,100,0.04,,,1.22,VWS V13.01,2013-05-21 16:19:00,
2013-05-21 11:24:00,61.5,61.5,29.92,NW,308,3.6,3.6,100,0.04,,,1.22,VWS V13.01,2013-05-21 16:24:00,
2013-05-21 11:29:00,61.3,61.3,29.89,NW,324,0.0,0.0,100,0.08,,,1.26,VWS V13.01,2013-05-21 16:29:00,
2013-05-21 11:34:00,61.3,61.3,29.89,NNW,345,0.0,0.0,100,0.08,,,1.26,VWS V13.01,2013-05-21 16:34:00,
2013-05-21 11:39:00,61.3,61.3,29.89,NNW,346,0.0,0.0,100,0.08,,,1.26,VWS V13.01,2013-05-21 16:39:00,
2013-05-21 11:44:00,61.3,61.3,29.86,North,5,0.0,0.0,100,0.08,,,1.26,VWS V13.01,2013-05-21 16:44:00,
2013-05-21 11:49:00,61.3,61.3,29.86,ESE,121,0.0,2.2,100,0.12,,,1.30,VWS V13.01,2013-05-21 16:49:00,
2013-05-21 11:54:00,61.3,61.3,29.86,ESE,114,0.0,3.1,100,0.12,,,1.30,VWS V13.01,2013-05-21 16:54:00,
2013-05-21 11:59:00,61.3,61.3,29.89,SE,124,0.0,0.0,100,0.12,,,1.30,VWS V13.01,2013-05-21 16:59:00,
2013-05-21 12:04:00,61.3,61.3,29.89,NE,39,0.0,0.0,100,0.12,,,1.30,VWS V13.01,2013-05-21 17:04:00,
2013-05-21 12:09:00,61.3,61.3,29.89,SSE,162,2.7,2.7,100,0.08,,,1.30,VWS V13.01,2013-05-21 17:09:00,
2013-05-21 12:14:00,61.3,61.3,29.89,ESE,123,0.0,0.0,100,0.12,,,1.34,VWS V13.01,2013-05-21 17:14:00,
2013-05-21 12:19:00,61.5,61.5,29.89,NE,38,0.0,0.0,100,0.12,,,1.34,VWS V13.01,2013-05-21 17:19:00,
2013-05-21 12:24:00,61.5,61.5,29.89,NE,38,0.0,0.0,100,0.12,,,1.34,VWS V13.01,2013-05-21 17:24:00,
2013-05-21 12:29:00,61.7,61.7,29.86,NW,322,3.1,3.1,100,0.08,,,1.34,VWS V13.01,2013-05-21 17:29:00,
2013-05-21 12:34:00,61.9,61.9,29.86,WNW,285,0.0,3.1,100,0.08,,,1.34,VWS V13.01,2013-05-21 17:34:00,
2013-05-21 12:39:00,61.9,61.9,29.86,WNW,285,0.0,0.0,100,0.08,,,1.34,VWS V13.01,2013-05-21 17:39:00,
2013-05-21 12:44:00,61.9,61.9,29.89,WSW,251,0.0,0.0,100,0.12,,,1.38,VWS V13.01,2013-05-21 17:44:00,
2013-05-21 12:49:00,61.9,61.9,29.89,South,187,0.0,0.0,100,0.12,,,1.38,VWS V13.01,2013-05-21 17:49:00,
2013-05-21 12:54:00,61.9,61.9,29.89,South,176,0.0,0.0,100,0.08,,,1.38,VWS V13.01,2013-05-21 17:54:00,
2013-05-21 12:59:00,62.0,62.0,29.92,SSW,195,0.0,0.0,100,0.08,,,1.38,VWS V13.01,2013-05-21 17:59:00,
2013-05-21 13:04:00,62.2,62.2,29.92,SW,228,4.0,4.9,100,0.08,,,1.38,VWS V13.01,2013-05-21 18:04:00,
2013-05-21 13:09:00,62.2,62.2,29.92,WSW,246,0.0,0.0,100,0.08,,,1.38,VWS V13.01,2013-05-21 18:09:00,
2013-05-21 13:14:00,62.2,62.2,29.89,WSW,252,0.0,0.0,100,0.04,,,1.38,VWS V13.01,2013-05-21 18:14:00,
2013-05-21 13:19:00,62.0,62.0,29.89,WSW,255,0.0,0.0,100,0.08,,,1.42,VWS V13.01,2013-05-21 18:19:00,
2013-05-21 13:24:00,62.0,62.0,29.89,NNW,333,0.0,0.0,100,0.08,,,1.42,VWS V13.01,2013-05-21 18:24:00,
2013-05-21 13:29:00,62.4,62.4,29.89,WSW,247,2.2,2.2,100,0.08,,,1.42,VWS V13.01,2013-05-21 18:29:00,
2013-05-21 13:34:00,62.4,62.4,29.89,WSW,248,0.0,2.2,100,0.08,,,1.42,VWS V13.01,2013-05-21 18:34:00,
2013-05-21 13:39:00,62.6,62.6,29.89,NW,308,2.7,3.1,100,0.08,,,1.42,VWS V13.01,2013-05-21 18:39:00,
2013-05-21 13:44:00,62.6,62.6,29.89,WSW,257,0.0,0.0,100,0.04,,,1.42,VWS V13.01,2013-05-21 18:44:00,
2013-05-21 13:49:00,62.9,62.9,29.89,WNW,283,0.0,0.0,100,0.04,,,1.42,VWS V13.01,2013-05-21 18:49:00,
2013-05-21 13:54:00,63.1,63.1,29.89,NW,309,0.0,0.0,100,0.04,,,1.42,VWS V13.01,2013-05-21 18:54:00,
2013-05-21 13:59:00,62.9,62.9,29.86,NNW,337,0.0,0.0,100,0.04,,,1.42,VWS V13.01,2013-05-21 18:59:00,
2013-05-21 14:04:00,62.8,62.8,29.86,NW,323,0.0,0.0,100,0.04,,,1.42,VWS V13.01,2013-05-21 19:04:00,
2013-05-21 14:09:00,63.1,63.1,29.86,WSW,256,0.0,0.0,100,0.04,,,1.42,VWS V13.01,2013-05-21 19:09:00,
2013-05-21 14:14:00,63.1,63.1,29.83,WSW,250,0.0,0.0,100,0.04,,,1.42,VWS V13.01,2013-05-21 19:14:00,
2013-05-21 14:19:00,62.9,62.9,29.83,ENE,76,2.2,2.7,100,0.04,,,1.42,VWS V13.01,2013-05-21 19:19:00,
2013-05-21 14:24:00,63.1,63.1,29.83,East,98,3.6,3.6,100,0.00,,,1.42,VWS V13.01,2013-05-21 19:24:00,
2013-05-21 14:29:00,63.7,63.7,29.78,NNE,27,3.6,3.6,100,0.00,,,1.42,VWS V13.01,2013-05-21 19:29:00,
2013-05-21 14:34:00,64.2,64.2,29.78,ESE,123,2.7,5.4,100,0.00,,,1.42,VWS V13.01,2013-05-21 19:34:00,
2013-05-21 14:39:00,64.4,64.4,29.78,NNE,25,4.9,4.9,100,0.00,,,1.42,VWS V13.01,2013-05-21 19:39:00,
2013-05-21 14:44:00,64.6,64.6,29.78,East,98,4.0,4.0,100,0.00,,,1.42,VWS V13.01,2013-05-21 19:44:00,
2013-05-21 14:49:00,64.9,64.9,29.78,ENE,65,4.0,4.0,100,0.00,,,1.42,VWS V13.01,2013-05-21 19:49:00,
2013-05-21 14:54:00,64.9,64.9,29.78,ESE,109,3.1,4.9,100,0.00,,,1.42,VWS V13.01,2013-05-21 19:54:00,
2013-05-21 14:59:00,64.9,64.9,29.78,ESE,104,5.4,5.4,100,0.00,,,1.42,VWS V13.01,2013-05-21 19:59:00,
2013-05-21 15:04:00,65.1,65.1,29.78,SE,128,5.4,5.4,100,0.00,,,1.42,VWS V13.01,2013-05-21 20:04:00,
2013-05-21 15:09:00,65.1,64.5,29.78,East,86,4.9,7.6,98,0.00,,,1.42,VWS V13.01,2013-05-21 20:09:00,
2013-05-21 15:14:00,65.1,64.2,29.75,East,83,7.6,7.6,97,0.00,,,1.42,VWS V13.01,2013-05-21 20:14:00,
2013-05-21 15:19:00,65.3,64.7,29.75,ENE,71,0.0,3.6,98,0.00,,,1.42,VWS V13.01,2013-05-21 20:19:00,
2013-05-21 15:24:00,65.5,64.3,29.75,East,95,4.0,7.6,96,0.00,,,1.42,VWS V13.01,2013-05-21 20:24:00,
2013-05-21 15:29:00,65.6,64.2,29.75,ESE,122,3.1,5.8,95,0.00,,,1.42,VWS V13.01,2013-05-21 20:29:00,
2013-05-21 15:34:00,66.0,63.9,29.75,East,87,0.0,0.0,93,0.00,,,1.42,VWS V13.01,2013-05-21 20:34:00,
2013-05-21 15:39:00,66.4,63.7,29.75,East,91,4.0,4.0,91,0.00,,,1.42,VWS V13.01,2013-05-21 20:39:00,
2013-05-21 15:44:00,66.7,63.1,29.78,ENE,59,3.6,3.6,88,0.00,,,1.42,VWS V13.01,2013-05-21 20:44:00,
2013-05-21 15:49:00,67.1,63.7,29.78,SSW,193,3.6,4.9,89,0.00,,,1.42,VWS V13.01,2013-05-21 20:49:00,
2013-05-21 15:54:00,67.3,62.3,29.78,NNE,12,0.0,0.0,84,0.00,,,1.42,VWS V13.01,2013-05-21 20:54:00,
2013-05-21 15:59:00,67.6,62.6,29.78,ESE,104,0.0,3.1,84,0.00,,,1.42,VWS V13.01,2013-05-21 20:59:00,
2013-05-21 16:04:00,67.8,63.1,29.78,SE,132,3.1,4.9,85,0.00,,,1.42,VWS V13.01,2013-05-21 21:04:00,
2013-05-21 16:09:00,67.4,61.8,29.78,SSE,157,0.0,2.2,82,0.00,,,1.42,VWS V13.01,2013-05-21 21:09:00,
2013-05-21 16:14:00,67.1,61.4,29.80,WSW,252,6.3,6.3,82,0.00,,,1.42,VWS V13.01,2013-05-21 21:14:00,
2013-05-21 16:19:00,66.9,62.9,29.80,SW,231,4.5,7.6,87,0.00,,,1.42,VWS V13.01,2013-05-21 21:19:00,
2013-05-21 16:23:00,66.4,62.7,29.80,WNW,300,0.0,0.0,88,0.00,,,1.42,VWS V13.01,2013-05-21 21:23:00,
2013-05-21 16:28:00,66.4,62.7,29.80,West,266,5.8,5.8,88,0.00,,,1.42,VWS V13.01,2013-05-21 21:28:00,
2013-05-21 16:33:00,66.0,63.0,29.80,WSW,248,6.3,10.5,90,0.00,,,1.42,VWS V13.01,2013-05-21 21:33:00,
2013-05-21 16:38:00,65.8,62.8,29.80,SW,234,8.7,12.8,90,0.00,,,1.42,VWS V13.01,2013-05-21 21:38:00,
2013-05-21 16:43:00,65.6,63.0,29.80,WSW,237,8.7,11.0,91,0.00,,,1.42,VWS V13.01,2013-05-21 21:43:00,
2013-05-21 16:48:00,65.1,62.7,29.86,SW,233,16.3,16.3,92,0.04,,,1.46,VWS V13.01,2013-05-21 21:48:00,
2013-05-21 16:53:00,64.7,63.0,29.86,WSW,251,11.4,14.1,94,0.04,,,1.46,VWS V13.01,2013-05-21 21:53:00,
2013-05-21 16:58:00,64.6,63.1,29.89,West,273,10.5,14.5,95,0.04,,,1.46,VWS V13.01,2013-05-21 21:58:00,
2013-05-21 17:03:00,64.0,62.9,29.89,WSW,247,12.8,12.8,96,0.04,,,1.46,VWS V13.01,2013-05-21 22:03:00,
2013-05-21 17:08:00,63.8,63.0,29.89,WSW,244,10.1,10.5,97,0.08,,,1.50,VWS V13.01,2013-05-21 22:08:00,
2013-05-21 17:13:00,63.5,62.6,29.89,SW,223,10.1,10.1,97,0.08,,,1.50,VWS V13.01,2013-05-21 22:13:00,
2013-05-21 17:18:00,63.3,62.1,29.89,SW,231,5.8,8.7,96,0.08,,,1.50,VWS V13.01,2013-05-21 22:18:00,
2013-05-21 17:23:00,63.1,61.1,29.89,WSW,248,8.1,11.0,93,0.08,,,1.50,VWS V13.01,2013-05-21 22:23:00,
2013-05-21 17:28:00,62.9,61.5,29.89,WSW,252,8.3,8.3,95,0.08,,,1.50,VWS V13.01,2013-05-21 22:28:00,
2013-05-21 17:33:00,62.8,61.6,29.89,West,269,7.6,8.1,96,0.08,,,1.50,VWS V13.01,2013-05-21 22:33:00,
2013-05-21 17:38:00,62.6,61.7,29.89,WSW,254,7.6,10.5,97,0.12,,,1.54,VWS V13.01,2013-05-21 22:38:00,
2013-05-21 17:43:00,62.4,61.8,29.89,WSW,258,8.7,13.2,98,0.12,,,1.54,VWS V13.01,2013-05-21 22:43:00,
2013-05-21 17:48:00,62.2,61.9,29.86,West,267,6.3,8.1,99,0.12,,,1.57,VWS V13.01,2013-05-21 22:48:00,
2013-05-21 17:53:00,62.0,61.8,29.86,West,261,6.3,8.1,99,0.12,,,1.57,VWS V13.01,2013-05-21 22:53:00,
2013-05-21 17:58:00,62.0,61.5,29.86,WSW,241,7.6,12.8,98,0.12,,,1.57,VWS V13.01,2013-05-21 22:58:00,
2013-05-21 18:03:00,62.0,61.8,29.86,West,260,5.4,8.7,99,0.16,,,1.61,VWS V13.01,2013-05-21 23:03:00,
2013-05-21 18:08:00,61.9,61.9,29.86,WSW,246,3.1,5.4,100,0.12,,,1.61,VWS V13.01,2013-05-21 23:08:00,
2013-05-21 18:13:00,61.9,61.9,29.86,WSW,242,6.3,6.3,100,0.12,,,1.61,VWS V13.01,2013-05-21 23:13:00,
2013-05-21 18:18:00,61.7,61.7,29.86,WSW,256,4.9,5.4,100,0.16,,,1.65,VWS V13.01,2013-05-21 23:18:00,
2013-05-21 18:23:00,61.7,61.7,29.86,West,263,0.0,0.0,100,0.16,,,1.65,VWS V13.01,2013-05-21 23:23:00,
2013-05-21 18:28:00,61.5,61.5,29.86,SSE,147,2.2,2.2,100,0.16,,,1.65,VWS V13.01,2013-05-21 23:28:00,
2013-05-21 18:33:00,61.5,61.5,29.86,South,178,3.6,3.6,100,0.16,,,1.65,VWS V13.01,2013-05-21 23:33:00,
2013-05-21 18:38:00,61.3,61.3,29.86,South,178,0.0,0.0,100,0.16,,,1.69,VWS V13.01,2013-05-21 23:38:00,
2013-05-21 18:43:00,61.3,61.3,29.86,South,178,0.0,0.0,100,0.16,,,1.69,VWS V13.01,2013-05-21 23:43:00,
2013-05-21 18:48:00,61.1,61.1,29.86,SSE,163,0.0,0.0,100,0.16,,,1.73,VWS V13.01,2013-05-21 23:48:00,
2013-05-21 18:53:00,61.1,61.1,29.86,SSE,163,0.0,0.0,100,0.20,,,1.77,VWS V13.01,2013-05-21 23:53:00,
2013-05-21 18:58:00,61.1,61.1,29.83,ENE,57,0.0,0.0,100,0.20,,,1.77,VWS V13.01,2013-05-21 23:58:00,
2013-05-21 19:03:00,61.3,61.3,29.83,NE,45,3.6,3.6,100,0.24,,,1.81,VWS V13.01,2013-05-22 00:03:00,
2013-05-21 19:08:00,61.1,61.1,29.83,NE,45,2.7,3.6,100,0.20,,,1.81,VWS V13.01,2013-05-22 00:08:00,
2013-05-21 19:13:00,61.1,61.1,29.83,NE,35,5.4,5.4,100,0.20,,,1.81,VWS V13.01,2013-05-22 00:13:00,
2013-05-21 19:18:00,61.1,61.1,29.80,NE,54,4.9,5.4,100,0.24,,,1.89,VWS V13.01,2013-05-22 00:18:00,
2013-05-21 19:23:00,61.0,61.0,29.80,ENE,70,3.6,3.6,100,0.24,,,1.89,VWS V13.01,2013-05-22 00:23:00,
2013-05-21 19:28:00,61.0,61.0,29.75,NE,38,5.4,6.3,100,0.28,,,1.93,VWS V13.01,2013-05-22 00:28:00,
2013-05-21 19:33:00,60.8,60.8,29.75,NE,44,6.3,6.3,100,0.28,,,1.93,VWS V13.01,2013-05-22 00:33:00,
2013-05-21 19:38:00,60.6,60.6,29.75,NE,52,4.0,7.6,100,0.24,,,1.93,VWS V13.01,2013-05-22 00:38:00,
2013-05-21 19:43:00,60.4,60.4,29.75,NNE,29,8.1,8.7,100,0.24,,,1.93,VWS V13.01,2013-05-22 00:43:00,
2013-05-21 19:48:00,60.4,60.4,29.69,ENE,77,4.0,6.3,100,0.20,,,1.93,VWS V13.01,2013-05-22 00:48:00,
2013-05-21 19:53:00,60.4,60.4,29.69,ESE,121,5.4,6.3,100,0.20,,,1.93,VWS V13.01,2013-05-22 00:53:00,
2013-05-21 19:58:00,60.4,60.4,29.69,ESE,104,4.0,4.9,100,0.16,,,1.93,VWS V13.01,2013-05-22 00:58:00,
2013-05-21 20:03:00,60.4,60.4,29.69,ESE,123,2.7,4.0,100,0.12,,,1.93,VWS V13.01,2013-05-22 01:03:00,
2013-05-21 20:08:00,60.4,60.4,29.69,East,92,5.8,5.8,100,0.12,,,1.93,VWS V13.01,2013-05-22 01:08:00,
2013-05-21 20:13:00,60.4,60.4,29.69,ESE,120,4.0,4.0,100,0.12,,,1.93,VWS V13.01,2013-05-22 01:13:00,
2013-05-21 20:18:00,60.4,60.4,29.69,ESE,122,3.1,4.0,100,0.04,,,1.93,VWS V13.01,2013-05-22 01:18:00,
2013-05-21 20:23:00,60.6,60.6,29.69,ENE,75,2.7,2.7,100,0.04,,,1.93,VWS V13.01,2013-05-22 01:23:00,
2013-05-21 20:28:00,60.6,60.6,29.69,NE,52,3.1,3.1,100,0.00,,,1.93,VWS V13.01,2013-05-22 01:28:00,
2013-05-21 20:33:00,60.4,60.4,29.69,NE,38,3.6,3.6,100,0.00,,,1.93,VWS V13.01,2013-05-22 01:33:00,
2013-05-21 20:38:00,60.4,60.4,29.69,East,101,3.6,4.0,100,0.00,,,1.93,VWS V13.01,2013-05-22 01:38:00,
2013-05-21 20:43:00,60.4,60.4,29.69,ENE,63,0.0,2.2,100,0.00,,,1.93,VWS V13.01,2013-05-22 01:43:00,
2013-05-21 20:48:00,60.4,60.4,29.69,NW,313,0.0,0.0,100,0.00,,,1.93,VWS V13.01,2013-05-22 01:48:00,
2013-05-21 20:53:00,60.6,60.6,29.69,WNW,291,2.7,2.7,100,0.00,,,1.93,VWS V13.01,2013-05-22 01:53:00,
2013-05-21 20:58:00,60.6,60.6,29.69,NW,321,2.2,2.2,100,0.00,,,1.93,VWS V13.01,2013-05-22 01:58:00,
2013-05-21 21:03:00,60.4,60.4,29.72,NNE,19,3.1,3.1,100,0.00,,,1.93,VWS V13.01,2013-05-22 02:03:00,
2013-05-21 21:08:00,60.2,60.2,29.72,NW,324,2.7,3.1,100,0.00,,,1.93,VWS V13.01,2013-05-22 02:08:00,
2013-05-21 21:13:00,60.2,60.2,29.72,NNE,12,3.1,3.6,100,0.00,,,1.93,VWS V13.01,2013-05-22 02:13:00,
2013-05-21 21:18:00,60.2,60.2,29.69,NNW,332,0.0,0.0,100,0.00,,,1.93,VWS V13.01,2013-05-22 02:18:00,
2013-05-21 21:23:00,60.2,60.2,29.69,NNW,335,0.0,0.0,100,0.00,,,1.93,VWS V13.01,2013-05-22 02:23:00,
2013-05-21 21:28:00,60.2,60.2,29.69,North,356,2.7,2.7,100,0.00,,,1.93,VWS V13.01,2013-05-22 02:28:00,
2013-05-21 21:33:00,60.2,60.2,29.69,North,352,0.0,0.0,100,0.00,,,1.93,VWS V13.01,2013-05-22 02:33:00,
2013-05-21 21:38:00,60.2,60.2,29.69,WSW,253,0.0,0.0,100,0.00,,,1.93,VWS V13.01,2013-05-22 02:38:00,
2013-05-21 21:43:00,60.2,60.2,29.69,WSW,257,2.7,3.6,100,0.00,,,1.93,VWS V13.01,2013-05-22 02:43:00,
2013-05-21 21:48:00,60.2,60.2,29.75,SSW,199,0.0,0.0,100,0.00,,,1.93,VWS V13.01,2013-05-22 02:48:00,
2013-05-21 21:53:00,60.2,60.2,29.75,SSW,208,0.0,0.0,100,0.00,,,1.93,VWS V13.01,2013-05-22 02:53:00,
2013-05-21 21:58:00,60.2,60.2,29.75,SSW,208,0.0,0.0,100,0.00,,,1.93,VWS V13.01,2013-05-22 02:58:00,
2013-05-21 22:03:00,60.1,60.1,29.75,SSW,208,0.0,0.0,100,0.00,,,1.93,VWS V13.01,2013-05-22 03:03:00,
2013-05-21 22:08:00,60.1,60.1,29.75,SSW,208,0.0,0.0,100,0.00,,,1.93,VWS V13.01,2013-05-22 03:08:00,
2013-05-21 22:13:00,59.9,59.9,29.75,SSW,208,0.0,0.0,100,0.00,,,1.93,VWS V13.01,2013-05-22 03:13:00,
2013-05-21 22:18:00,59.9,59.9,29.75,SSW,208,0.0,0.0,100,0.00,,,1.93,VWS V13.01,2013-05-22 03:18:00,
2013-05-21 22:23:00,59.9,59.9,29.75,West,262,3.6,3.6,100,0.00,,,1.93,VWS V13.01,2013-05-22 03:23:00,
2013-05-21 22:28:00,59.9,59.9,29.75,West,260,0.0,0.0,100,0.00,,,1.93,VWS V13.01,2013-05-22 03:28:00,
2013-05-21 22:33:00,59.7,59.7,29.78,SW,236,0.0,0.0,100,0.00,,,1.93,VWS V13.01,2013-05-22 03:33:00,
2013-05-21 22:38:00,59.7,59.7,29.78,WSW,243,4.0,4.0,100,0.00,,,1.93,VWS V13.01,2013-05-22 03:38:00,
2013-05-21 22:43:00,59.7,59.7,29.78,West,269,5.4,5.4,100,0.00,,,1.93,VWS V13.01,2013-05-22 03:43:00,
2013-05-21 22:48:00,59.9,59.9,29.78,WSW,254,4.0,4.0,100,0.00,,,1.93,VWS V13.01,2013-05-22 03:48:00,
2013-05-21 22:52:00,59.9,59.9,29.78,West,270,3.1,5.8,100,0.00,,,1.93,VWS V13.01,2013-05-22 03:52:00,
2013-05-21 22:57:00,60.1,60.1,29.78,WSW,257,0.0,0.0,100,0.00,,,1.93,VWS V13.01,2013-05-22 03:57:00,
2013-05-21 23:01:00,60.2,60.2,29.78,WSW,252,0.0,0.0,100,0.00,,,1.93,VWS V13.01,2013-05-22 04:01:00,
2013-05-21 23:06:00,60.2,60.2,29.78,WSW,250,2.7,3.6,100,0.00,,,1.93,VWS V13.01,2013-05-22 04:06:00,
2013-05-21 23:11:00,60.2,60.2,29.78,WSW,257,2.2,2.2,100,0.00,,,1.93,VWS V13.01,2013-05-22 04:11:00,
2013-05-21 23:16:00,60.2,60.2,29.78,WSW,238,2.2,2.7,100,0.00,,,1.93,VWS V13.01,2013-05-22 04:16:00,
2013-05-21 23:21:00,60.2,60.2,29.78,West,263,0.0,0.0,100,0.00,,,1.93,VWS V13.01,2013-05-22 04:21:00,
2013-05-21 23:26:00,60.2,60.2,29.78,West,273,2.7,3.1,100,0.00,,,1.93,VWS V13.01,2013-05-22 04:26:00,
2013-05-21 23:31:00,60.2,60.2,29.80,WSW,258,4.9,4.9,100,0.00,,,1.93,VWS V13.01,2013-05-22 04:31:00,
2013-05-21 23:36:00,60.2,60.2,29.80,WSW,258,5.8,5.8,100,0.00,,,1.93,VWS V13.01,2013-05-22 04:36:00,
2013-05-21 23:41:00,60.2,60.2,29.80,WSW,251,2.7,3.1,100,0.00,,,1.93,VWS V13.01,2013-05-22 04:41:00,
2013-05-21 23:46:00,60.2,60.2,29.80,WSW,251,3.1,3.1,100,0.00,,,1.93,VWS V13.01,2013-05-22 04:46:00,
2013-05-21 23:51:00,60.2,60.2,29.80,WSW,252,3.1,3.1,100,0.00,,,1.93,VWS V13.01,2013-05-22 04:51:00,
2013-05-21 23:56:00,60.2,60.2,29.80,WSW,253,3.1,5.4,100,0.00,,,1.93,VWS V13.01,2013-05-22 04:56:00,